Blakely, GA

4:51 PM EDT on July 26, 2016 (GMT -0400)
Blakely

Weather History for KBIJ - March, 2013

Change the Weather History Date:

Tuesday, March 5, 2013

  Actual Average (KDHN) Record (KDHN)
Temperature  
Mean Temperature 62 °F 57 °F  
Max Temperature 77 °F 69 °F 85 °F (1945)
Min Temperature 46 °F 45 °F 26 °F (2002)
Degree Days  
Heating Degree Days 4 9  
Month to date heating degree days 45  
Since 1 July heating degree days 1604  
Cooling Degree Days 0 1  
Month to date cooling degree days 5  
Year to date cooling degree days 15  
Growing Degree Days 12 (Base 50)    
Moisture  
Dew Point 52 °F    
Average Humidity 75    
Maximum Humidity 94    
Minimum Humidity 50    
Precipitation  
Precipitation 0.00 in 0.16 in 5.02 in (1959)
Month to date precipitation 0.76  
Year to date precipitation 10.16  
Sea Level Pressure  
Sea Level Pressure 30.01 in    
Wind  
Wind Speed 5 mph (WSW)    
Max Wind Speed 22 mph    
Max Gust Speed 36 mph    
Visibility 10 miles    
Events Rain    
T = Trace of Precipitation, MM = Missing Value Source: NWS Daily Summary

Daily Weather History Graph

Daily Weather History Graph

Search for Another Location

Airport or City:

Trip Planner

Search our weather history database for the weather conditions in past years. The results will help you decide how hot, cold, wet, or windy it might be!

Date:

Astronomy

Mar. 05, 2013 Rise Set
Actual Time 7:01 AM EST 6:40 PM EST
Civil Twilight 6:37 AM EST 7:05 PM EST
Nautical Twilight 6:09 AM EST 7:33 PM EST
Astronomical Twilight 5:41 AM EST 8:01 PM EST
Moon 1:56 AM EST (3/5) 12:35 PM EST (3/5)
Length of Visible Light 12h 27m
Length of Day
11h 39m
Last Quarter, 41% of the Moon is Illuminated
Mar 5
Last Quarter
Mar 11
New
Mar 19
First Quarter
Mar 27
Full
Apr 3
Last Quarter

Hourly Weather History & Observations

Time (EST) Temp. Windchill Dew Point Humidity Pressure Visibility Wind Dir Wind Speed Gust Speed Precip Events Conditions
12:15 AM 53.6 °F - 41.0 °F 62% 30.09 in 10.0 mi Calm Calm - N/A   Clear
12:35 AM 53.6 °F - 41.0 °F 62% 30.08 in 10.0 mi South 3.5 mph - N/A   Clear
12:55 AM 53.6 °F - 42.8 °F 67% 30.08 in 10.0 mi Calm Calm - N/A   Clear
1:35 AM 51.8 °F - 42.8 °F 71% 30.08 in 10.0 mi Calm Calm - N/A   Clear
1:55 AM 51.8 °F - 42.8 °F 71% 30.07 in 10.0 mi Calm Calm - N/A   Clear
2:15 AM 51.8 °F - 42.8 °F 71% 30.08 in 10.0 mi Calm Calm - N/A   Clear
2:35 AM 51.8 °F - 42.8 °F 71% 30.08 in 10.0 mi Calm Calm - N/A   Clear
2:55 AM 51.8 °F - 42.8 °F 71% 30.08 in 10.0 mi Calm Calm - N/A   Clear
3:15 AM 51.8 °F - 44.6 °F 76% 30.08 in 10.0 mi Calm Calm - N/A   Clear
3:35 AM 50.0 °F - 44.6 °F 82% 30.08 in 10.0 mi Calm Calm - N/A   Scattered Clouds
3:55 AM 50.0 °F - 44.6 °F 82% 30.08 in 10.0 mi Calm Calm - N/A   Mostly Cloudy
4:15 AM 50.0 °F - 44.6 °F 82% 30.08 in 10.0 mi Calm Calm - N/A   Overcast
4:35 AM 51.8 °F - 44.6 °F 76% 30.08 in 10.0 mi Calm Calm - N/A   Overcast
4:55 AM 51.8 °F - 44.6 °F 76% 30.08 in 10.0 mi Calm Calm - N/A   Overcast
5:15 AM 51.8 °F - 44.6 °F 76% 30.08 in 10.0 mi Calm Calm - N/A   Mostly Cloudy
6:15 AM 51.8 °F - 46.4 °F 82% 30.09 in 10.0 mi Calm Calm - N/A   Overcast
6:35 AM 51.8 °F - 46.4 °F 82% 30.09 in 10.0 mi Calm Calm - N/A   Overcast
6:55 AM 51.8 °F - 46.4 °F 82% 30.08 in 10.0 mi Calm Calm - N/A   Overcast
7:35 AM 51.8 °F - 48.2 °F 88% 30.08 in 10.0 mi Calm Calm - N/A   Overcast
8:15 AM 53.6 °F - 50.0 °F 88% 30.09 in 10.0 mi Calm Calm - N/A   Overcast
8:35 AM 53.6 °F - 50.0 °F 88% 30.10 in 10.0 mi Calm Calm - N/A   Overcast
8:55 AM 53.6 °F - 50.0 °F 88% 30.09 in 10.0 mi Calm Calm - N/A   Overcast
9:15 AM 53.6 °F - 51.8 °F 94% 30.09 in 10.0 mi Calm Calm - N/A   Overcast
9:35 AM 55.4 °F - 51.8 °F 88% 30.08 in 10.0 mi Calm Calm - N/A   Overcast
9:55 AM 55.4 °F - 51.8 °F 88% 30.06 in 10.0 mi Calm Calm - N/A   Overcast
10:15 AM 57.2 °F - 53.6 °F 88% 30.07 in 10.0 mi Calm Calm - N/A   Overcast
10:35 AM 59.0 °F - 53.6 °F 82% 30.07 in 10.0 mi SSW 3.5 mph - N/A   Overcast
10:55 AM 60.8 °F - 55.4 °F 82% 30.07 in 10.0 mi SSW 5.8 mph - N/A   Overcast
11:15 AM 60.8 °F - 55.4 °F 82% 30.08 in 10.0 mi SW 6.9 mph - N/A   Overcast
11:35 AM 62.6 °F - 57.2 °F 82% 30.06 in 10.0 mi SW 5.8 mph - N/A   Light Drizzle
11:55 AM 66.2 °F - 59.0 °F 78% 30.04 in 10.0 mi SSW 11.5 mph 16.1 mph N/A   Overcast
12:15 PM 68.0 °F - 59.0 °F 73% 30.03 in 10.0 mi SSW 11.5 mph - N/A   Overcast
12:35 PM 68.0 °F - 60.8 °F 78% 30.02 in 10.0 mi SW 11.5 mph 17.3 mph N/A   Overcast
12:55 PM 68.0 °F - 60.8 °F 78% 30.00 in 10.0 mi SW 9.2 mph 20.7 mph N/A   Overcast
1:15 PM 68.0 °F - 60.8 °F 78% 30.00 in 10.0 mi SW 10.4 mph - N/A   Overcast
1:35 PM 69.8 °F - 60.8 °F 73% 29.98 in 10.0 mi SSW 6.9 mph - N/A   Overcast
1:55 PM 71.6 °F - 60.8 °F 69% 29.96 in 10.0 mi WSW 12.7 mph - N/A   Overcast
2:15 PM 73.4 °F - 62.6 °F 69% 29.94 in 10.0 mi SW 9.2 mph - N/A   Mostly Cloudy
2:35 PM 73.4 °F - 60.8 °F 65% 29.92 in 10.0 mi SW 11.5 mph 16.1 mph N/A   Scattered Clouds
2:55 PM 73.4 °F - 60.8 °F 65% 29.92 in 10.0 mi SW 13.8 mph 20.7 mph N/A   Mostly Cloudy
3:15 PM 77.0 °F - 57.2 °F 50% 29.91 in 10.0 mi SW 20.7 mph 33.4 mph N/A   Scattered Clouds
3:35 PM 77.0 °F - 57.2 °F 50% 29.90 in 10.0 mi SW 15.0 mph 25.3 mph N/A   Scattered Clouds
3:55 PM 75.2 °F - 55.4 °F 50% 29.90 in 10.0 mi SW 20.7 mph 27.6 mph N/A   Overcast
4:15 PM 73.4 °F - 55.4 °F 53% 29.89 in 10.0 mi SW 17.3 mph 32.2 mph N/A   Overcast
4:35 PM 73.4 °F - 57.2 °F 57% 29.88 in 10.0 mi SW 19.6 mph 33.4 mph N/A   Overcast
4:55 PM 73.4 °F - 59.0 °F 61% 29.88 in 10.0 mi SW 21.9 mph 35.7 mph N/A   Overcast
5:15 PM 73.4 °F - 59.0 °F 61% 29.86 in 10.0 mi SW 18.4 mph 32.2 mph N/A   Scattered Clouds
5:35 PM 71.6 °F - 59.0 °F 64% 29.86 in 10.0 mi SW 17.3 mph 34.5 mph N/A   Scattered Clouds
5:55 PM 71.6 °F - 59.0 °F 64% 29.88 in 10.0 mi SW 16.1 mph 25.3 mph N/A   Mostly Cloudy
6:15 PM 71.6 °F - 59.0 °F 64% 29.87 in 10.0 mi WSW 13.8 mph 25.3 mph N/A   Overcast
6:35 PM 69.8 °F - 59.0 °F 68% 29.87 in 10.0 mi SW 21.9 mph 32.2 mph N/A   Overcast
6:55 PM 69.8 °F - 60.8 °F 73% 29.92 in 10.0 mi WNW 18.4 mph 29.9 mph N/A Rain Light Rain
7:15 PM 62.6 °F - 60.8 °F 94% 29.92 in 10.0 mi West 8.1 mph - N/A   Overcast
7:35 PM 62.6 °F - 60.8 °F 94% 29.92 in 10.0 mi WNW 8.1 mph - N/A   Overcast
7:55 PM 62.6 °F - 59.0 °F 88% 29.93 in 10.0 mi West 5.8 mph - N/A   Overcast
8:15 PM 62.6 °F - 59.0 °F 88% 29.95 in 10.0 mi WNW 6.9 mph - N/A   Overcast
8:35 PM 60.8 °F - 55.4 °F 82% 29.95 in 10.0 mi WNW 9.2 mph 19.6 mph N/A   Overcast
8:55 PM 59.0 °F - 51.8 °F 77% 29.97 in 10.0 mi WNW 8.1 mph 19.6 mph N/A   Scattered Clouds
9:15 PM 57.2 °F - 51.8 °F 82% 29.98 in 10.0 mi WNW 9.2 mph 17.3 mph N/A   Scattered Clouds
9:35 PM 55.4 °F - 50.0 °F 82% 30.00 in 10.0 mi WNW 6.9 mph - N/A   Mostly Cloudy
9:55 PM 55.4 °F - 48.2 °F 77% 30.02 in 10.0 mi WNW 15.0 mph 24.2 mph N/A   Scattered Clouds
10:15 PM 53.6 °F - 42.8 °F 67% 30.03 in 10.0 mi WNW 12.7 mph 19.6 mph N/A   Clear
10:35 PM 51.8 °F - 42.8 °F 71% 30.05 in 10.0 mi WNW 10.4 mph 18.4 mph N/A   Clear
10:55 PM 50.0 °F - 41.0 °F 71% 30.06 in 10.0 mi WNW 12.7 mph 18.4 mph N/A   Clear
11:15 PM 48.2 °F - 37.4 °F 66% 30.07 in 10.0 mi NW 13.8 mph 31.1 mph N/A   Clear
11:35 PM 46.4 °F 42.9 °F 37.4 °F 71% 30.08 in 10.0 mi NNW 6.9 mph 18.4 mph N/A   Clear
11:55 PM 46.4 °F 42.9 °F 37.4 °F 71% 30.08 in 10.0 mi NW 6.9 mph - N/A   Clear